Regional Weather Roundup
Issued by NWS

Home | Current Version | Previous Version | Graphics & Text | Print | Product List | Glossary On
Versions: 1 2 3 4 5 6 7 8 9 10 11 12 13 14 15 16 17 18 19 20 21 22 23 24 25 26 27 28 29 30 31 32 33 34 35 36 37 38 39 40 41 42 43 44 45 46 47 48 49 50
000
ASUS43 KDMX 032204
RWRIA

WEATHER ROUNDUP FOR IOWA
NATIONAL WEATHER SERVICE DES MOINES IA
  ISSUED BY NWS QUAD CITIES IA IL
400 PM CST TUE MAR 03 2015

NOTE: "FAIR" INDICATES FEW OR NO CLOUDS BELOW 12,000 FEET WITH NO
SIGNIFICANT WEATHER AND/OR OBSTRUCTIONS TO VISIBILITY.

* - THESE STATIONS ARE NOT NWS STATIONS...THUS NOT UNDER NWS
QUALITY CONTROL.  THEY ALSO DO NOT REPORT WEATHER SUCH
AS PRECIPITATION OR FOG.

IAZ001>003-012>014-020>022-031>034-043>046-032300-
   NORTHWEST IOWA

CITY           SKY/WX    TMP DP  RH WIND       PRES   REMARKS
CARROLL *      CLOUDY    28  21  74 NW25      29.88R WCI  14
CHEROKEE *     PTCLDY    24  14  66 NW20G25   29.92R WCI  10
DENNISON *     CLOUDY    28  19  69 NW21G26   29.89R WCI  15
LE MARS *      SUNNY     23  10  58 NW23G29   29.96R WCI   7
ORANGE CITY *  SUNNY     21   9  58 NW17G24   29.93R WCI   7
SHELDON *      CLOUDY    19   9  63 NW25G32   29.91R WCI   2
SIOUX CITY     SUNNY     27   8  44 NW29G36   29.95R WCI  11
SPENCER        FLURRIES  23  13  65 NW22G31   29.90R WCI   8
STORM LAKE *   PTSUNNY   25  16  68 NW21G31   29.89R WCI  10
$$

IAZ055>058-069>071-079>083-090>094-032300-
   SOUTHWEST IOWA

CITY           SKY/WX    TMP DP  RH WIND       PRES   REMARKS
ATLANTIC *     CLOUDY    30  23  74 NW23      29.87R WCI  17
AUDUBON *      PTSUNNY   28  21  74 NW20G25   29.88R WCI  15
CLARINDA *     CLOUDY    34  27  75 NW16G25   29.91R WCI  23
COUNCIL BLFS * PTSUNNY   30  19  64 NW25G33   29.89R WCI  16
CRESTON *      CLOUDY    32  28  86 NW24G30   29.85R WCI  19
HARLAN *       CLOUDY    30  25  80 N22G30    29.93R WCI  17
LAMONI         CLOUDY    35  27  72 NW16      29.84R WCI  25
RED OAK *      CLOUDY    32  25  74 NW16G23   29.90R WCI  21
SHENANDOAH *   CLOUDY    34  25  69 N17       29.91R WCI  23
$$

IAZ047>049-059>061-072>074-084-032300-
   CENTRAL IOWA

CITY           SKY/WX    TMP DP  RH WIND       PRES   REMARKS
AMES           CLOUDY    30  22  72 NW23G32   29.83R WCI  17
ANKENY *       CLOUDY    32  27  80 NW18G25   29.83R WCI  20
BOONE *        CLOUDY    28  23  80 NW23G29   29.82R WCI  14
CHARITON *     CLOUDY    34  27  75 NW17G23   29.82R WCI  23
DES MOINES     CLOUDY    33  25  72 N22G32    29.83R WCI  21
GRINNELL *     CLOUDY    32  27  81 W15       29.79R WCI  22
KNOXVILLE *    CLOUDY    34  27  75 NW16      29.80R WCI  23
MARSHALLTOWN   CLOUDY    30  24  78 NW25      29.79R WCI  16
NEWTON *       CLOUDY    34  27  75 NW10G20   29.80R WCI  26
PELLA *        CLOUDY    34  30  86 NW15      29.82R WCI  24
PERRY *          N/A     31  24  76 NW18G29   29.85R WCI  19
$$

IAZ004>006-015-016-023>025-035-036-032300-
   NORTH CENTRAL IOWA

CITY           SKY/WX    TMP DP  RH WIND       PRES   REMARKS
ALGONA *       CLOUDY    23 N/A N/A NW20G35   29.85R WCI   8
CLARION *      CLOUDY    25  21  86 NW29G37   29.83R WCI   8
ESTHERVILLE    LGT SNOW  20  13  74 NW24      29.87R WCI   3
FORT DODGE *   CLOUDY    27  16  63 NW15G23   29.87R WCI  15
MASON CITY     CLOUDY    23  17  78 NW25      29.80R WCI   7
FOREST CITY *  FAIR      25  14  63 NW26G36   29.81R WCI   9
WEBSTER CITY * CLOUDY    27  27 100 NW28      29.83R WCI  11
IOWA FALLS *   CLOUDY    28  22  79 NW26      29.79R WCI  13
$$

IAZ007>011-017>019-026>030-037>042-050>054-066-032300-
   NORTHEAST IOWA

CITY           SKY/WX    TMP DP  RH WIND       PRES   REMARKS
CEDAR RAPIDS   CLOUDY    32  26  78 NW18      29.75R WCI  20
CHARLES CITY * CLOUDY    27  23  86 NW24G35   29.76R WCI  12
CLINTON *      CLOUDY    34  27  75 NW21      29.76R WCI  22
DECORAH *      CLOUDY    28  23  80 NW14G23   29.70R WCI  17
DUBUQUE        CLOUDY    32  28  85 W15       29.70R WCI  22
MONTICELLO *   CLOUDY    32  28  86 NW16G23   29.73R WCI  21
OELWEIN *      CLOUDY    30  27  86 NW20      29.73R WCI  18
WATERLOO       CLOUDY    30  24  78 NW17G23   29.76R WCI  18
$$

IAZ064-065-067-068-078-032300-
   EAST CENTRAL IOWA

CITY           SKY/WX    TMP DP  RH WIND       PRES   REMARKS
DAVENPORT      CLOUDY    33  28  81 NW14      29.74R WCI  23
IOWA CITY      CLOUDY    34  26  72 NW14      29.78R WCI  25
MT. PLEASANT * CLOUDY    35  29  80 W14       29.79R WCI  25
MUSCATINE *    CLOUDY    36  28  75 NW16      29.78R WCI  26
QUAD CITIES    CLOUDY    35  29  78 W17G24    29.75R WCI  25
$$

IAZ062-063-075>077-085>089-095>099-032300-
   SOUTHEAST IOWA

CITY           SKY/WX    TMP DP  RH WIND       PRES   REMARKS
BURLINGTON     CLOUDY    36  31  82 NW8       29.77R WCI  30
FAIRFIELD *    CLOUDY    34  28  80 NW13G18   29.79R WCI  25
FORT MADISON * CLOUDY    36  30  80 W9        29.80R WCI  29
KEOKUK *       CLOUDY    37  32  81 NW7G15    29.80R WCI  32
OSKALOOSA *    CLOUDY    33  29  83 NW15      29.80R WCI  23
CENTERVILLE *  MOCLDY    36  32  87 NW12      29.83R WCI  27
OTTUMWA        CLOUDY    34  28  79 NW13      29.79R WCI  25
WASHINGTON *   CLOUDY    34  34 100 NW16      29.79R WCI  23
$$

ABBREVIATIONS USED IN REMARKS
   TC - TEMPERATURES IN CELSIUS
  WCI - WIND CHILL INDEX
   HX - HEAT INDEX
  VSB - VISIBILITY
$$



USA.gov is the U.S. government's official web portal to all federal, state and local government web resources and services.